Regional Weather Roundup
Issued by NWS Mobile, AL

Home | Current Version | Previous Version | Text Only | Print | Product List | Glossary On
Versions: 1 2 3 4 5 6 7 8 9 10 11 12 13 14 15 16 17 18 19 20 21 22 23 24 25 26 27 28 29 30 31 32 33 34 35 36 37 38 39 40 41 42 43 44 45 46 47 48 49 50
000
ASUS44 KMOB 241413
RWRMOB
REGIONAL WEATHER ROUNDUP
NATIONAL WEATHER SERVICE MOBILE AL
900 AM CDT MON JUL 24 2017

NOTE: "FAIR" INDICATES FEW OR NO CLOUDS BELOW 12,000 FEET WITH NO
      SIGNIFICANT WEATHER AND/OR OBSTRUCTIONS TO VISIBILITY.

  * THESE STATIONS ARE PART OF THE UNIVERSITY OF SOUTH ALABAMA
    MESONET AND ARE NOT UNDER NWS OR FAA QUALITY CONTROL.

ALZ061>064-241500-
COASTAL ALABAMA

CITY           SKY/WX    TMP DP  RH WIND       PRES   REMARKS
MOBILE REG APT RAIN      75  73  93 NW7       30.04R FOG
BROOKLEY FIELD LGT RAIN  79  76  90 W5        30.03R
USA CAMPUS*      N/A     72  70  94 CALM      30.03
DOG RIVER*     NOT AVBL


CITY           SKY/WX    TMP DP  RH WIND       PRES   REMARKS
GULF SHORES    TSTM      74  74 100 W8        30.04R

$$

ALZ051>060-241500-
INTERIOR SOUTHWEST AND SOUTH CENTRAL ALABAMA

CITY           SKY/WX    TMP DP  RH WIND       PRES   REMARKS
GREENVILLE     PTSUNNY   78  71  79 SW7       30.01R
EVERGREEN      PTSUNNY   81  73  76 VRB6      30.03R
ATMORE*        NOT AVBL
ANDALUSIA/OPP  CLOUDY    79  73  83 W8        30.02R
ANDALUSIA*       N/A     77  73  88 W5        30.03
FLORALA APT    MOSUNNY   81  72  74 VRB5      30.03R
FLORALA*         N/A     81  73  78 SW6       30.71

$$

FLZ001>006-241500-
WESTERN FLORIDA PANHANDLE

CITY           SKY/WX    TMP DP  RH WIND       PRES   REMARKS
PENSACOLA      RAIN      78  74  87 SW3       30.02S FOG
NAS PENSACOLA  TSTM      76  74  93 VRB3      30.03R FOG
MILTON         CLOUDY    81  74  79 W7        30.03R
WHTNG S FIELD  CLOUDY    83  75  77 W6        30.03R


CITY           SKY/WX    TMP DP  RH WIND       PRES   REMARKS
JAY*             N/A     79  73  83 SW8       30.02
CRESTVIEW      CLOUDY    79  73  82 W8        30.03R
VALPARAISO     PTSUNNY   82  74  76 NW10      30.02R
DESTIN         PTSUNNY   85  73  67 VRB5      30.02R

$$

MSZ076-079-241500-
INTERIOR SOUTHEAST MISSISSIPPI

CITY           SKY/WX    TMP DP  RH WIND       PRES   REMARKS
LEAKESVILLE*     N/A     73  73 100 W3        30.04
AGRICOLA*        N/A     72  72 100 N5        30.03

$$

MARINE OBSERVATIONS

STATION/POSITION TIME  TEMP    WIND        PRES    WAVE
                       AIR SEA DIR/SP/G            HT/PER
                 (UTC) (F)     (DEG/KT/KT) (MB)    (FT/S)
PASCAGOULA       1348   75     330/ 15/ 23 1016.5R
PETIT BOIS ISLND 1348   82     250/ 16/ 19 1017.3R
GRAND BAY        1245   75     330/ 14     1017.0R
KATRINA CUT      1330   77      10/ 10     1016.6R
CEDAR POINT      1330   74     330/ 10     1016.9R
E DAUPHIN ISLAND 1300   75     310/ 22/ 25 1016.7R
MIDDLE BAY LIGHT 1330   77     240/ 20     1017.3R
USCG MOBILE BAY  1348   78 85  270/  5/  9 1017.1R
STATE DOCKS      1348   78 87              1016.4R
MEAHER PARK      1330   79     250/  4     1016.9R
WEEKS BAY        1245   75                   N/A
FORT MORGAN      1348   76     330/ 19/ 21   N/A
12 S ORANGE BCH  1350   78 84  330/ 17/ 23 1016.3R   3/ 5
PENSACOLA BAY    1348   75 87              1016.9R
64 S DAUPHIN ISL 1350   84 85  240/ 14/ 17 1016.8R   2/ 4
67 S FORT MORGAN 1330   82     250/ 17     1016.6S

$$

SELECTED LOCATIONS ACROSS THE REGION

CITY           SKY/WX    TMP DP  RH WIND       PRES   REMARKS
NEW ORLEANS    MOSUNNY   84  77  79 SW10      30.00R
GULFPORT       LGT RAIN  75  74  96 N10       30.01R
PASCAGOULA AP  LGT RAIN  74  72  93 NW5       30.04R FOG
PASCAGOULA*      N/A    N/A N/A N/A VRB7        N/A
HATTIESBURG    LGT RAIN  75  74  96 S6        30.02S
LAUREL         CLOUDY    73  73 100 S6        30.02R
MERIDIAN       CLOUDY    80  74  81 SW3       29.99F
JACKSON        PTSUNNY   79  75  87 SW6       29.99R
MONTGOMERY     CLOUDY    80  73  79 W7        29.99R
TROY           CLOUDY    78  75  90 SW7       30.02R
ASHFORD*         N/A     77  73  88 W5        30.03
DOTHAN         MOSUNNY   82  75  79 CALM      30.03F
PANAMA CITY    MOSUNNY   83  74  74 W10       30.00S

$$




USA.gov is the U.S. government's official web portal to all federal, state and local government web resources and services.